Regional Weather Roundup
Issued by NWS

Home | Current Version | Previous Version | Graphics & Text | Print | Product List | Glossary Off
Versions: 1 2 3 4 5 6 7 8 9 10 11 12 13 14 15 16 17 18 19 20 21 22 23 24 25 26 27 28 29 30 31 32 33 34 35 36 37 38 39 40 41 42 43 44 45 46 47 48 49 50

000
ASUS43 KTOP 061108
RWRKS

WEATHER ROUNDUP FOR KANSAS
NATIONAL WEATHER SERVICE GOODLAND KS
600 AM CDT WED MAY 06 2015

NOTE:  "FAIR" INDICATES FEW OR NO CLOUDS BELOW 12,000 FEET WITH NO
SIGNIFICANT WEATHER AND/OR OBSTRUCTIONS TO VISIBILITY.

KSZ001>006-013>018-027>032-041>047-061200-
NORTHWEST KANSAS

CITY           SKY/WX    TMP DP  RH WIND       PRES   REMARKS
GOODLAND       CLOUDY    51  50  96 S14       29.72S
HAYS           CLOUDY    61  54  77 S14       29.75S
HILL CITY      CLOUDY    61  58  90 S10       29.73F
RUSSELL        CLOUDY    61  60  97 SE17      29.75S
$$

KSZ061>065-074>080-084>089-061200-
SOUTHWEST KANSAS

CITY           SKY/WX    TMP DP  RH WIND       PRES   REMARKS
DODGE CITY     MOCLDY    54  51  90 S12       29.76F
ELKHART          N/A     47  43  87 S9          N/A
GARDEN CITY    PTCLDY    50  49  96 SE13      29.71F
GREAT BEND     CLOUDY    61  55  82 S15G22    29.77S
LIBERAL        CLEAR     52  46  82 SE8       29.74F
PRATT          CLOUDY    57  55  94 S12G17    29.80F
$$

KSZ066>073-081>083-090>101-061200-
SOUTHEAST KANSAS

CITY           SKY/WX    TMP DP  RH WIND       PRES   REMARKS
CHANUTE        LGT RAIN  63  61  93 S18G25    29.93S
COFFEYVILLE    LGT RAIN  63  60  90 S12       29.95R
HUTCHINSON     CLOUDY    61  57  87 S17G25    29.81S
MEDICINE LODGE   N/A     58  57  97 S8        29.79F
NEWTON         CLOUDY    59  54  82 S17       29.86R
PARSONS        LGT RAIN  64  62  93 S12       29.95S
WICHITA INTL   CLOUDY    60  57  89 SE14      29.84R
WICHITA JABRA  CLOUDY    59  59 100 S16         N/A
WICHITA MCCONL CLOUDY    59  58  95 SE14      29.84F
WINFIELD       CLOUDY    59  58  96 SE14      29.87F
$$

KSZ007>012-019>026-033>040-048>060-102>105-061200-
NORTHEAST KANSAS

CITY           SKY/WX    TMP DP  RH WIND       PRES   REMARKS
CONCORDIA      LGT RAIN  60  58  92 S14       29.79R
EMPORIA        LGT RAIN  60  58  92 S14       29.84F
LAWRENCE       LGT RAIN  65  58  78 SE20G25   29.91R
MANHATTAN      LGT RAIN  62  60  93 S9        29.81F
MARYSVILLE     CLOUDY    63  61  94 SE17G26   29.81F
OLATHE IND     LGT RAIN  65  58  78 S14       29.94S
OLATHE EXE     LGT RAIN  66  58  75 S18G24    29.93S
SALINA         LGT RAIN  62  59  90 SE10      29.79F
TOPEKA BILLARD CLOUDY    64  61  90 SE14      29.88S
TOPEKA FORBES  CLOUDY    66  60  81 S21G31    29.86F
$$


USA.gov is the U.S. government's official web portal to all federal, state and local government web resources and services.